Weather History for Spirit of St Louis, MO

Change the Weather History Date:

Thursday, January 24, 2013

  Actual Average Record
Temperature  
Mean Temperature 20 °F -  
Max Temperature 27 °F 38 °F 37 °F (2014)
Min Temperature 15 °F 19 °F 0 °F (2014)
Degree Days  
Heating Degree Days 44    
Moisture  
Dew Point 6 °F    
Average Humidity 49    
Maximum Humidity 65    
Minimum Humidity 38    
Precipitation  
Precipitation 0.00 in - - ()
Sea Level Pressure  
Sea Level Pressure 30.48 in    
Wind  
Wind Speed 11 mph (ENE)    
Max Wind Speed 15 mph    
Max Gust Speed 20 mph    
Visibility 10 miles    
Events      
Averages and records for this station are not official NWS values.
T = Trace of Precipitation, MM = Missing Value Source: NWS Daily Summary

Daily Weather History Graph

Daily Weather History Graph

Search for Another Location

Airport:

Trip Planner

Search our weather history database for the weather conditions in past years. The results will help you decide how hot, cold, wet, or windy it might be!

Date:

Astronomy

Jan. 24, 2013 Rise Set
Actual Time 7:14 AM CST 5:15 PM CST
Civil Twilight 6:45 AM CST 5:44 PM CST
Nautical Twilight 6:13 AM CST 6:16 PM CST
Astronomical Twilight 5:42 AM CST 6:47 PM CST
Moon 3:18 PM CST (1/24) 5:11 AM CST (1/24)
Length of Visible Light 10h 58m
Length of Day
10h 01m
Waxing Gibbous, 94% of the Moon is Illuminated
Jan 24
Waxing Gibbous
Jan 26
Full
Feb 3
Last Quarter
Feb 10
New
Feb 17
First Quarter

Hourly Weather History & Observations

Time (CST) Temp. Windchill Dew Point Humidity Pressure Visibility Wind Dir Wind Speed Gust Speed Precip Events Conditions
12:54 AM 26.1 °F 17.6 °F 12.0 °F 55% 30.41 in 10.0 mi NNW 8.1 mph - N/A   Clear
1:54 AM 24.1 °F 12.5 °F 9.0 °F 53% 30.45 in 10.0 mi North 12.7 mph - N/A   Clear
2:54 AM 21.0 °F 8.1 °F 5.0 °F 50% 30.49 in 10.0 mi North 13.8 mph 19.6 mph N/A   Clear
3:54 AM 19.0 °F 6.8 °F 3.9 °F 52% 30.51 in 10.0 mi North 11.5 mph - N/A   Clear
4:54 AM 18.0 °F 6.9 °F 3.9 °F 54% 30.54 in 10.0 mi North 9.2 mph 18.4 mph N/A   Clear
5:54 AM 16.0 °F 3.6 °F 3.9 °F 59% 30.57 in 10.0 mi NNE 10.4 mph - N/A   Clear
6:54 AM 15.1 °F 2.5 °F 5.0 °F 64% 30.58 in 10.0 mi NE 10.4 mph - N/A   Clear
7:54 AM 16.0 °F 2.9 °F 6.1 °F 65% 30.59 in 10.0 mi NE 11.5 mph - N/A   Overcast
8:54 AM 17.1 °F 3.6 °F 7.0 °F 65% 30.60 in 10.0 mi ENE 12.7 mph - N/A   Overcast
9:54 AM 19.0 °F 5.6 °F 1.0 °F 46% 30.62 in 10.0 mi ENE 13.8 mph - N/A   Clear
10:54 AM 21.0 °F 9.9 °F -0.0 °F 40% 30.63 in 10.0 mi East 10.4 mph - N/A   Clear
11:54 AM 21.9 °F 10.4 °F -0.0 °F 38% 30.58 in 10.0 mi ESE 11.5 mph - N/A   Overcast
12:54 PM 23.0 °F 13.1 °F 1.0 °F 39% 30.54 in 10.0 mi East 9.2 mph - N/A   Overcast
1:54 PM 24.1 °F 14.4 °F 3.0 °F 40% 30.51 in 10.0 mi ESE 9.2 mph - N/A   Overcast
2:54 PM 25.0 °F 17.1 °F 3.9 °F 41% 30.50 in 10.0 mi SE 6.9 mph - N/A   Overcast
3:54 PM 25.0 °F 12.6 °F 6.1 °F 45% 30.44 in 10.0 mi East 15.0 mph 18.4 mph N/A   Overcast
4:54 PM 25.0 °F 14.8 °F 7.0 °F 46% 30.43 in 10.0 mi East 10.4 mph - N/A   Overcast
5:54 PM 25.0 °F 15.5 °F 7.0 °F 46% 30.43 in 10.0 mi East 9.2 mph - N/A   Clear
6:54 PM 26.1 °F 16.2 °F 6.1 °F 43% 30.41 in 10.0 mi ESE 10.4 mph 17.3 mph N/A   Overcast
7:54 PM 26.1 °F 15.0 °F 8.1 °F 47% 30.40 in 10.0 mi ESE 12.7 mph 19.6 mph N/A   Overcast
8:54 PM 26.1 °F 16.2 °F 9.0 °F 49% 30.36 in 10.0 mi ESE 10.4 mph 19.6 mph N/A   Overcast
9:54 PM 26.1 °F 16.2 °F 9.0 °F 49% 30.34 in 10.0 mi SE 10.4 mph - N/A   Overcast
10:54 PM 26.1 °F 19.4 °F 10.0 °F 51% 30.30 in 10.0 mi ESE 5.8 mph - N/A   Overcast
11:54 PM 27.0 °F 18.7 °F 10.0 °F 49% 30.27 in 10.0 mi East 8.1 mph - N/A   Overcast